Location: ???? ?????????
(31.1304°N, 31.7111°E)
Time: 19:57:56
(UTC+00:00)

Vanguard 3 - Visible Passes

Search period start: 04 March 2021 00:00
Search period end: 14 March 2021 00:00
Orbit: 508 x 3262 km, 33.4° (Epoch: 04 March)

Date Brightness Start Highest point End Pass type
(mag) Time Alt. Az. Time Alt. Az. Time Alt. Az.
04 Mar 9.1 16:05:51 10° W 16:22:29 84° N 16:31:41 10° E visible
04 Mar 8.5 18:24:18 10° WNW 18:35:52 55° SSW 18:36:17 54° SSW visible
05 Mar 8.8 17:06:23 10° WNW 17:21:13 79° SSW 17:26:32 28° ESE visible
05 Mar 9.7 19:24:53 10° W 19:31:07 25° WSW 19:31:07 25° WSW visible
06 Mar 8.7 18:06:46 10° WNW 18:19:09 50° SW 18:21:23 42° S visible
07 Mar 9.1 16:48:38 10° WNW 17:04:25 74° SSW 17:11:42 18° ESE visible
07 Mar 9.7 19:07:46 10° W 19:16:08 25° SW 19:16:17 25° SW visible
08 Mar 9.2 17:49:09 10° WNW 18:02:18 46° SW 18:06:37 29° SSE visible
09 Mar 9.4 16:30:50 10° WNW 16:47:29 69° SSW 16:56:58 10° SE visible
09 Mar 9.8 18:50:37 10° W 18:59:14 23° SW 19:01:35 20° SSW visible
10 Mar 9.7 17:31:31 10° WNW 17:45:18 43° SW 17:51:59 17° SSE visible
11 Mar 9.7 16:13:01 10° WNW 16:30:23 64° SSW 16:40:40 10° SE visible
11 Mar 10.1 18:33:29 10° W 18:42:11 21° SW 18:47:01 14° SSW visible
12 Mar 10.1 17:13:52 10° WNW 17:28:09 39° SW 17:37:03 10° SSE visible
13 Mar 10.0 15:55:14 10° WNW 16:13:08 60° SSW 16:24:14 10° SE visible
13 Mar 10.4 18:16:26 10° W 18:25:02 19° SW 18:31:26 10° SSW visible
